Location: Newark
(42.7133°N, 87.7910°W)
Time: 16:24:16
(UTC+00:00)

Courier 1B Rocket - All Passes

Search period start: 23 October 2019 00:00
Search period end: 02 November 2019 00:00
Orbit: 920 x 1202 km, 28.2° (Epoch: 22 October)

Date Brightness Start Highest point End Pass type
(mag) Time Alt. Az. Time Alt. Az. Time Alt. Az.
23 Oct - 07:20:10 10° S 07:23:04 13° SSE 07:25:57 10° SE night (unlit)
23 Oct - 09:10:56 10° SW 09:15:25 21° S 09:19:52 10° SE visible
23 Oct - 11:03:39 10° SW 11:07:48 19° S 11:12:00 10° SSE visible
24 Oct - 06:21:31 10° SSE 06:22:25 10° SSE 06:23:18 10° SSE night (unlit)
24 Oct - 08:10:25 10° SW 08:14:44 19° S 08:18:58 10° SE visible
24 Oct - 10:02:42 10° SW 10:07:08 20° S 10:11:33 10° SE visible
24 Oct - 11:56:55 10° SW 11:59:27 13° SSW 12:01:59 10° S daylight
25 Oct - 07:10:04 10° SSW 07:14:02 17° SSE 07:17:55 10° SE night (unlit)
25 Oct - 09:01:51 10° SW 09:06:26 21° S 09:10:58 10° SE visible
25 Oct - 10:55:16 10° SW 10:58:47 16° SSW 11:02:20 10° SSE visible
26 Oct - 06:10:00 10° SSW 06:13:20 14° SSE 06:16:36 10° SE night (unlit)
26 Oct - 08:01:05 10° SW 08:05:44 21° S 08:10:17 10° SE visible
26 Oct - 09:54:00 10° SW 09:58:08 18° S 10:02:14 10° SSE visible
27 Oct - 05:10:37 10° S 05:12:38 11° SSE 05:14:37 10° SE night (unlit)
27 Oct - 07:00:26 10° SW 07:05:01 20° S 07:09:28 10° SE night (unlit)
27 Oct - 08:52:56 10° SW 08:57:27 20° S 09:01:54 10° SE visible
27 Oct - 10:47:26 10° SW 10:49:45 12° SSW 10:52:03 10° S visible
28 Oct - 05:59:56 10° SSW 06:04:17 18° SSE 06:08:30 10° SE night (unlit)
28 Oct - 07:51:57 10° SW 07:56:44 22° S 08:01:24 10° SE visible
28 Oct - 09:45:34 10° SW 09:49:06 15° SSW 09:52:36 10° SSE visible
29 Oct - 04:59:41 10° SSW 05:03:32 16° SSE 05:07:17 10° SE night (unlit)
29 Oct - 06:51:04 10° SW 06:56:01 22° S 07:00:46 10° SE night (unlit)
29 Oct - 08:44:09 10° SW 08:48:26 19° SSW 08:52:37 10° SSE visible
30 Oct - 03:59:56 10° S 04:02:47 13° SSE 04:05:35 10° SE night (unlit)
30 Oct - 05:50:17 10° SW 05:55:15 21° S 06:00:01 10° SE night (unlit)
30 Oct - 07:42:58 10° SW 07:47:45 21° S 07:52:21 10° SE night (unlit)
30 Oct - 09:37:40 10° SW 09:40:02 12° SSW 09:42:22 10° S visible
31 Oct - 04:49:39 10° SSW 04:54:29 19° SSE 04:59:05 10° SE night (unlit)
31 Oct - 06:41:52 10° SW 06:47:00 23° S 06:51:54 10° SE night (unlit)
31 Oct - 08:35:39 10° SW 08:39:23 16° SSW 08:43:02 10° SSE visible
01 Nov - 03:49:17 10° SSW 03:53:41 17° SSE 03:57:54 10° SE night (unlit)
01 Nov - 05:40:53 10° SW 05:46:13 23° S 05:51:18 10° SE night (unlit)
01 Nov - 07:34:08 10° SW 07:38:42 19° SSW 07:43:07 10° SSE night (unlit)
